Location: Bannatyne
(13.0833°N, 59.5333°W)
Time: 14:23:15
(UTC+00:00)

Vanguard 2 Rocket - Pass Details

Date: 25 January 2020
Orbit: 554 x 3326 km, 32.9° (Epoch: 04 April)

Event Time Altitude Azimuth Distance (km) Brightness Sun altitude
Rises 13:58:50 0° 308° (NW) 4,145 9.8 44.4°
Reaches altitude 10° 14:01:13 10° 313° (NW) 3,453 9.5 44.8°
Maximum altitude 14:10:25 61° 33° (NNE) 2,236 9.5 46.4°
Drops below altitude 10° 14:26:37 10° 110° (ESE) 5,787 11.7 49.0°
Sets 14:31:55 0° 113° (ESE) 7,069 12.0 49.8°
